This is the latest recevied weather packets stored in our database for station/object KI4MRC. If no packets are shown the sender has not sent any weather packets the latest 1 day(s).
| Time | Temp. | Humidity | Pressure | Rain* | Wind** | Luminosity | Snow |
|---|---|---|---|---|---|---|---|
| 1778081365 | 30° C | 69% | 1017.4 hPa | 0 mm | - | 861 W/m² | - |
| 1778079850 | 30° C | 67% | 1017.2 hPa | 0 mm | - | 241 W/m² | - |
| 1778078941 | 30° C | 66% | 1017.1 hPa | 0 mm | - | 543 W/m² | - |
| 1778078637 | 30° C | 68% | 1017 hPa | 0 mm | - | 693 W/m² | - |
| 1778078336 | 30° C | 70% | 1017.3 hPa | 0 mm | - | 639 W/m² | - |
| 1778077731 | 30° C | 69% | 1017 hPa | 0 mm | - | 625 W/m² | - |
| 1778076824 | 28.89° C | 72% | 1017 hPa | 0 mm | - | 660 W/m² | - |
| 1778075612 | 28.89° C | 75% | 1016.7 hPa | 0 mm | - | 378 W/m² | - |
| 1778075005 | 28.33° C | 77% | 1016.8 hPa | 0 mm | - | 554 W/m² | - |
| 1778074096 | 27.78° C | 77% | 1016.5 hPa | 0 mm | - | 309 W/m² | - |
| 1778073793 | 27.78° C | 76% | 1016.7 hPa | 0 mm | - | 213 W/m² | - |
| 1778073491 | 27.78° C | 76% | 1016.7 hPa | 0 mm | - | 349 W/m² | - |
| 1778072884 | 27.22° C | 79% | 1016.7 hPa | 0 mm | - | 263 W/m² | - |
| 1778071976 | 26.11° C | 85% | 1016.6 hPa | 0 mm | - | 260 W/m² | - |
| 1778070464 | 24.44° C | 95% | 1016.3 hPa | 0 mm | - | 84 W/m² | - |
| 1778069253 | 23.33° C | 99% | 1016.5 hPa | 0 mm | - | 80 W/m² | - |
| 1778068951 | 23.33° C | 99% | 1016.5 hPa | 0 mm | - | 83 W/m² | - |
| 1778068044 | 22.78° C | 99% | 1016.3 hPa | 0 mm | - | 74 W/m² | - |
| 1778067440 | 22.22° C | 99% | 1016.4 hPa | 0 mm | - | 61 W/m² | - |
| 1778067137 | 21.67° C | 99% | 1016.3 hPa | 0 mm | - | 54 W/m² | - |
| 1778066833 | 21.67° C | 99% | 1016 hPa | 0 mm | - | 51 W/m² | - |
| 1778066531 | 21.67° C | 99% | 1016.1 hPa | 0 mm | - | 50 W/m² | - |
| 1778066228 | 21.67° C | 99% | 1016 hPa | 0 mm | - | 48 W/m² | - |
| 1778065926 | 21.67° C | 99% | 1015.8 hPa | 0 mm | - | 41 W/m² | - |
| 1778065623 | 21.11° C | 98% | 1015.8 hPa | 0 mm | - | 33 W/m² | - |
* Rain latest hour (hover to see other rain measurements)
** Current wind speed in m/s (hover to see current wind gust speed)